Regional Weather Roundup
Issued by NWS Albany, NY

Current Version | Previous Version | Text Only | Print | Product List | Glossary Off
Versions: 1 2 3 4 5 6 7 8 9 10 11 12 13 14 15 16 17 18 19 20 21 22 23 24 25 26 27 28 29 30 31 32 33 34 35 36 37 38 39 40 41 42 43 44 45 46 47 48 49 50
000 ASUS41 KALY 272310 RWRALY NEW YORK STATE HOURLY WEATHER ROUNDUP NATIONAL WEATHER SERVICE ALBANY NY 700 PM EDT TUE JUN 27 2017 NOTE: "FAIR" INDICATES FEW OR NO CLOUDS BELOW 12,000 FEET WITH NO SIGNIFICANT WEATHER AND/OR NO OBSTRUCTIONS TO VISIBILITY. NYZ032-033-038>043-046>054-057>066-NYZ062>081-082-084-280000- EAST CITY SKY/WX TMP DP RH WIND PRES REMARKS ALBANY MOSUNNY 64 50 60 NW9 29.95R GLENS FALLS MOSUNNY 58 53 84 SE6 29.93R POUGHKEEPSIE MOSUNNY 70 50 49 NW8 29.93R NEWBURGH MOSUNNY 72 50 46 NW12 29.95R MONTGOMERY MOSUNNY 72 46 39 NW6 29.94R WHITE PLAINS MOSUNNY 71 45 39 W13 29.94R ISLIP PTSUNNY 72 57 59 SW12 29.92S NEW YORK CITY PTSUNNY 76 52 43 W14G21 29.93R CENTRAL PARK MOSUNNY 73 51 46 CALM 29.96R $$ NYZ005>009-017-018-044>046-055-056-280000- CENTRAL CITY SKY/WX TMP DP RH WIND PRES REMARKS FULTON CLOUDY 62 53 72 SW6 29.95R SYRACUSE LGT RAIN 60 53 77 SW5 29.95S ROME MOSUNNY 59 51 75 SW7 29.96R ELMIRA LGT RAIN 63 52 67 W9 29.98R BINGHAMTON MOSUNNY 62 48 60 SW7 29.97S MONTICELLO MOSUNNY 57 54 88 N7 29.99S $$ NYZ026>034-041>043-087-280000- NORTH CITY SKY/WX TMP DP RH WIND PRES REMARKS WATERTOWN CLOUDY 62 53 72 SW9 29.92S FORT DRUM NOT AVBL OGDENSBURG FAIR 64 54 69 SW9 29.89S MASSENA MOSUNNY 64 52 64 W10 29.88R SARANAC LAKE LGT RAIN 53 50 89 S8 29.89S PLATTSBURGH PTSUNNY 60 54 80 CALM 29.88S $$ NYZ001>004-010>016-019>021-085-280000- WEST CITY SKY/WX TMP DP RH WIND PRES REMARKS NIAGARA FALLS MOSUNNY 68 50 52 W9 29.97S BUFFALO CLOUDY 66 51 58 W8 29.97F THUNDER DUNKIRK SUNNY 64 52 64 SW18G26 30.01S JAMESTOWN MOSUNNY 61 46 59 W15 30.04S WELLSVILLE CLOUDY 58 48 69 W8 30.04R ROCHESTER PTSUNNY 65 52 62 W13G23 29.96R PENN YAN PTSUNNY 64 48 56 W17G24 29.98R $$ KEY WCI = WIND CHILL INDEX VSB = VISIBILITY HX = HEAT INDEX $$

USA.gov is the U.S. government's official web portal to all federal, state and local government web resources and services.